Weather History for Los Angeles, CA

Change the Weather History Date:

Thursday, January 2, 2014

  Actual Average Record
Temperature  
Mean Temperature 64 °F 56 °F  
Max Temperature 78 °F 64 °F 80 °F (2001)
Min Temperature 50 °F 48 °F 35 °F (1952)
Degree Days  
Heating Degree Days 1 9  
Month to date heating degree days 11 18  
Since 1 July heating degree days 304 460  
Cooling Degree Days 0 0  
Month to date cooling degree days 0 0  
Year to date cooling degree days 0 0  
Growing Degree Days 14 (Base 50)    
Moisture  
Dew Point 39 °F    
Average Humidity 50    
Maximum Humidity 86    
Minimum Humidity 14    
Precipitation  
Precipitation 0.00 in 0.09 in 0.98 in (2006)
Month to date precipitation 0.00 0.18  
Year to date precipitation 0.00 0.18  
Since 1 July precipitation 1.04 4.19  
Sea Level Pressure  
Sea Level Pressure 30.04 in    
Wind  
Wind Speed 5 mph (SW)    
Max Wind Speed 12 mph    
Max Gust Speed 14 mph    
Visibility 10 miles    
Events Fog    
T = Trace of Precipitation, MM = Missing Value Source: NWS Daily Summary

Daily Weather History Graph

Daily Weather History Graph

Search for Another Location

Airport:

Trip Planner

Search our weather history database for the weather conditions in past years. The results will help you decide how hot, cold, wet, or windy it might be!

Date:

Astronomy

Jan. 02, 2014 Rise Set
Actual Time 6:59 AM PST 4:56 PM PST
Civil Twilight 6:31 AM PST 5:24 PM PST
Nautical Twilight 6:00 AM PST 5:55 PM PST
Astronomical Twilight 5:29 AM PST 6:25 PM PST
Moon 7:49 AM PST (1/2) 6:52 PM PST (1/2)
Length of Visible Light 10h 52m
Length of Day
9h 57m
Waxing Crescent, 3% of the Moon is Illuminated
Jan 2
Waxing Crescent
Jan 7
First Quarter
Jan 15
Full
Jan 23
Last Quarter
Jan 30
New

Hourly Weather History & Observations

Time (PST) Temp. Dew Point Humidity Pressure Visibility Wind Dir Wind Speed Gust Speed Precip Events Conditions
12:53 AM 59.0 °F 51.1 °F 75% 30.08 in 10.0 mi Calm Calm - N/A   Clear
1:53 AM 57.0 °F 39.9 °F 53% 30.08 in 10.0 mi ENE 3.5 mph - N/A   Clear
2:53 AM 57.0 °F 32.0 °F 39% 30.08 in 10.0 mi Calm Calm - N/A   Clear
3:53 AM 57.0 °F 30.9 °F 37% 30.07 in 10.0 mi ENE 3.5 mph - N/A   Clear
4:53 AM 54.0 °F 30.9 °F 41% 30.07 in 10.0 mi ESE 5.8 mph - N/A   Clear
5:53 AM 51.1 °F 35.1 °F 54% 30.07 in 10.0 mi ESE 3.5 mph - N/A   Clear
6:53 AM 54.0 °F 33.1 °F 45% 30.07 in 10.0 mi SE 5.8 mph - N/A Fog Shallow Fog
7:53 AM 55.9 °F 36.0 °F 47% 30.09 in 10.0 mi Calm Calm - N/A   Scattered Clouds
8:53 AM 66.0 °F 28.9 °F 25% 30.10 in 10.0 mi Variable 3.5 mph - N/A   Scattered Clouds
9:53 AM 73.0 °F 27.0 °F 18% 30.10 in 10.0 mi NNE 4.6 mph - N/A   Scattered Clouds
10:53 AM 77.0 °F 25.0 °F 15% 30.09 in 10.0 mi Calm Calm - N/A   Scattered Clouds
11:53 AM 70.0 °F 43.0 °F 38% 30.05 in 10.0 mi West 9.2 mph - N/A   Scattered Clouds
12:53 PM 68.0 °F 48.0 °F 49% 30.02 in 10.0 mi West 9.2 mph - N/A   Scattered Clouds
1:53 PM 69.1 °F 44.1 °F 40% 30.00 in 10.0 mi West 10.4 mph - N/A   Scattered Clouds
2:53 PM 66.9 °F 44.1 °F 44% 30.01 in 10.0 mi West 11.5 mph - N/A   Scattered Clouds
3:53 PM 66.9 °F 43.0 °F 42% 30.00 in 10.0 mi West 10.4 mph - N/A   Scattered Clouds
4:53 PM 64.0 °F 44.1 °F 48% 30.00 in 10.0 mi West 6.9 mph - N/A   Scattered Clouds
5:53 PM 64.0 °F 43.0 °F 46% 30.00 in 10.0 mi West 6.9 mph - N/A   Scattered Clouds
6:53 PM 61.0 °F 48.9 °F 64% 30.01 in 10.0 mi West 5.8 mph - N/A   Scattered Clouds
7:53 PM 62.1 °F 46.9 °F 58% 30.01 in 10.0 mi WSW 5.8 mph - N/A   Partly Cloudy
8:53 PM 63.0 °F 46.0 °F 54% 30.01 in 10.0 mi Calm Calm - N/A   Partly Cloudy
9:53 PM 61.0 °F 46.0 °F 58% 30.02 in 10.0 mi SSE 3.5 mph - N/A   Clear
10:53 PM 59.0 °F 43.0 °F 55% 30.02 in 10.0 mi East 3.5 mph - N/A   Clear
11:53 PM 57.9 °F 45.0 °F 62% 30.02 in 10.0 mi ESE 3.5 mph - N/A   Clear